TimePST,TemperatureF,Dew PointF,Humidity,Sea Level PressureIn,VisibilityMPH,Wind Direction,Wind SpeedMPH,Gust SpeedMPH,PrecipitationIn,Events,Conditions,WindDirDegrees,DateUTC
12:53 AM,36.0,34.0,93,30.31,0.2,East,3.5,-,N/A,Fog,Fog,100,2013-02-03 08:53:00
1:53 AM,36.0,35.1,97,30.32,0.2,Calm,Calm,-,N/A,Fog,Fog,0,2013-02-03 09:53:00
2:53 AM,36.0,34.0,93,30.31,0.2,Calm,Calm,-,N/A,Fog,Fog,0,2013-02-03 10:53:00
3:53 AM,37.0,35.1,93,30.32,0.2,NW,3.5,-,N/A,Fog,Fog,320,2013-02-03 11:53:00
4:07 AM,37.4,35.6,93,30.31,0.8,Calm,Calm,-,N/A,,Mist,0,2013-02-03 12:07:00
4:17 AM,37.4,35.6,93,30.30,2.0,Calm,Calm,-,N/A,,Overcast,0,2013-02-03 12:17:00
4:27 AM,37.4,35.6,93,30.30,3.0,Calm,Calm,-,N/A,,Overcast,0,2013-02-03 12:27:00
4:53 AM,37.0,35.1,93,30.31,4.0,Calm,Calm,-,N/A,,Overcast,0,2013-02-03 12:53:00
5:53 AM,37.9,36.0,93,30.32,4.0,NNE,3.5,-,N/A,,Overcast,30,2013-02-03 13:53:00
6:53 AM,37.9,37.0,97,30.32,3.0,Calm,Calm,-,N/A,,Overcast,0,2013-02-03 14:53:00
7:21 AM,37.4,37.4,100,30.31,4.0,Calm,Calm,-,N/A,,Overcast,0,2013-02-03 15:21:00
7:53 AM,39.0,37.0,93,30.33,4.0,Calm,Calm,-,N/A,,Overcast,0,2013-02-03 15:53:00
8:29 AM,39.2,37.4,93,30.33,2.5,ENE,4.6,-,N/A,,Overcast,60,2013-02-03 16:29:00
8:53 AM,39.0,37.0,93,30.34,2.0,North,3.5,-,N/A,,Overcast,350,2013-02-03 16:53:00
9:40 AM,39.2,37.4,93,30.34,1.8,Calm,Calm,-,N/A,,Overcast,0,2013-02-03 17:40:00
9:53 AM,39.9,37.9,93,30.35,1.5,Calm,Calm,-,N/A,,Overcast,0,2013-02-03 17:53:00
10:25 AM,39.2,37.4,93,30.36,2.5,North,3.5,-,N/A,,Overcast,350,2013-02-03 18:25:00
10:40 AM,39.2,37.4,93,30.35,1.5,Calm,Calm,-,N/A,,Overcast,0,2013-02-03 18:40:00
10:53 AM,41.0,39.0,93,30.36,2.0,Calm,Calm,-,N/A,,Overcast,0,2013-02-03 18:53:00
11:53 AM,43.0,39.9,89,30.34,2.0,Calm,Calm,-,N/A,,Overcast,0,2013-02-03 19:53:00
12:04 PM,42.8,41.0,93,30.32,3.0,Calm,Calm,-,N/A,,Overcast,0,2013-02-03 20:04:00
12:48 PM,44.6,41.0,87,30.30,4.0,Calm,Calm,-,N/A,,Overcast,0,2013-02-03 20:48:00
12:53 PM,44.1,41.0,89,30.30,5.0,Calm,Calm,-,N/A,,Overcast,0,2013-02-03 20:53:00
1:53 PM,46.0,41.0,83,30.29,7.0,Calm,Calm,-,N/A,,Overcast,0,2013-02-03 21:53:00
2:53 PM,46.0,41.0,83,30.28,7.0,Calm,Calm,-,N/A,,Overcast,0,2013-02-03 22:53:00
3:53 PM,46.0,42.1,86,30.29,6.0,Calm,Calm,-,N/A,,Overcast,0,2013-02-03 23:53:00
4:18 PM,46.4,42.8,87,30.28,6.0,Calm,Calm,-,N/A,,Haze,0,2013-02-04 00:18:00
4:53 PM,46.9,42.1,83,30.29,7.0,Calm,Calm,-,N/A,,Overcast,0,2013-02-04 00:53:00
5:12 PM,46.4,42.8,87,30.28,6.0,Calm,Calm,-,N/A,,Overcast,0,2013-02-04 01:12:00
5:53 PM,46.0,42.1,86,30.28,8.0,Calm,Calm,-,N/A,,Overcast,0,2013-02-04 01:53:00
6:53 PM,44.1,42.1,93,30.28,5.0,Calm,Calm,-,N/A,,Overcast,0,2013-02-04 02:53:00
7:53 PM,45.0,42.1,90,30.27,5.0,Calm,Calm,-,N/A,,Overcast,0,2013-02-04 03:53:00
8:53 PM,44.1,41.0,89,30.26,4.0,Calm,Calm,-,N/A,,Overcast,0,2013-02-04 04:53:00
9:05 PM,42.8,41.0,93,30.27,4.0,Calm,Calm,-,N/A,,Overcast,0,2013-02-04 05:05:00
9:37 PM,44.6,41.0,87,30.27,5.0,NW,3.5,-,N/A,,Overcast,320,2013-02-04 05:37:00
9:53 PM,44.1,41.0,89,30.27,5.0,Calm,Calm,-,N/A,,Overcast,0,2013-02-04 05:53:00
10:31 PM,44.6,41.0,87,30.26,5.0,Calm,Calm,-,N/A,,Overcast,0,2013-02-04 06:31:00
10:53 PM,43.0,41.0,93,30.26,4.0,Calm,Calm,-,N/A,,Overcast,0,2013-02-04 06:53:00
11:51 PM,42.8,41.0,93,30.25,2.0,Calm,Calm,-,N/A,,Overcast,0,2013-02-04 07:51:00
11:53 PM,42.1,41.0,96,30.25,2.0,Calm,Calm,-,N/A,,Overcast,0,2013-02-04 07:53:00